Погода в Первомайском

Россия / Ульяновская область     54°01′07″N   45°54′46″E
темп.,
°C
ветер,
м/с
пор.,
м/с
влажн.,
%
обл.,
%
осадки,
мм/ч
давл.,
гПа
погр.,
м
22 января, сб
сб2201:00−8ююв61593100 0.3 1013603
04:00−8ююв51393100 1.3 1013533
07:00−8ююв41194100 0.4 1013436
10:00−7юв41095100 1.6 1014472
13:00−5ююв4995100 0.6 1015471
16:00−4юв3796100 1.4 1015418
19:00−4ююв2697100 0.9 1016304
22:00−4ю2697100 1.6 1018275
23 января, вс
вс2301:00−8ююв119898 0.3 102010
04:00−10юв1198100 0.4 102212
07:00−10вюв1198100 0.1 102414
10:00−8юв1297100 0.1 102678
13:00−4юв2392100 0.0 1027345
16:00−4в2497100 0.4 1029285
19:00−6в1298100 0.1 103146
22:00−6в2597100 0.5 1032201
24 января, пн
пн2401:00−6всв2497100 0.7 1033172
04:00−7в2597100 1.2 1035154
07:00−9всв1197100 0.0 103523
10:00−11вюв2394100 0.0 103753
13:00−6в248287 0.0 1037249
16:00−6в258962 0.0 1036209
19:00−14в229735 0.0 103717
22:00−17вюв219838 0.0 103710
25 января, вт
вт2501:00−19юв1110024 0.0 10369
04:00−21юв1110037 0.0 10359
07:00−23юв1110065 0.0 10349
10:00−20юв229834 0.0 103331
13:00−9ююв368799 0.0 1030245
16:00−7ююв3991100 0.0 1028360
19:00−12ююв259699 0.0 102890
22:00−16ююв239874 0.0 102739
26 января, ср
ср2601:00−14ююв249797 0.1 102678
04:00−12ююв2497100 0.1 102498
07:00−12ююв2597100 0.0 1024106
10:00−10ююв2796100 0.1 1023211
13:00−6ю3792100 0.1 1022399
16:00−5ю3694100 0.1 1021484
19:00−9ю249796 0.1 102165
22:00−12ю249863 0.1 102163